Location: Acequia del Cap
(41.7000°N, 0.6167°E)
Time: 17:11:51
(UTC+00:00)

Cosmos 1606 Rocket - Pass Details

Date: 07 August 2020
Orbit: 602 x 633 km, 82.5° (Epoch: 23 September)

Event Time Altitude Azimuth Distance (km) Brightness Sun altitude
Exits shadow 04:14:59 - 194° (SSW) 2,907 6.6 -8.0°
Rises 04:15:00 0° 194° (SSW) 2,906 6.6 -8.0°
Reaches altitude 10° 04:17:14 10° 197° (SSW) 2,006 5.8 -7.7°
Maximum altitude 04:21:39 65° 279° (W) 701 3.6 -6.9°
Drops below altitude 10° 04:26:07 10° 2° (N) 2,025 6.6 -6.2°
Sets 04:28:24 0° 5° (N) 2,937 7.5 -5.8°
